STARLINK-1362 (45538 NORAD) Tracking and Keplerian Element Data

This shows tracking and keplerian element data for the satellite.

Feedback or suggestion? Click here.




ElementValue
Catalog45538
NameSTARLINK-1362
Epoch Orbit565
Epoch Day145.33334491
Epoch Year2020
RAAN245.1027
Inclination52.9992
Eccentricity0.0001759
Argument of Perigee307.8378
Mean Anonmoly290.2788
Mean Motion15.42150459
Decay Rate0.02095882
L11 45538U 20025H 20145.33334491 .02095882 00000-0 43421-1 0 9995
L22 45538 52.9992 245.1027 0001759 307.8378 290.2788 15.42150459 5650

Live tracking and technical data element details for STARLINK-1362 (NORAD 45538). STARLINK-1362 can be tracked NOW for your location showing map with azimuth and elevation plus other details from your city location.

Track the satellite on the map from your city or location and see movement details for azimuth, elevation, latitude, longitude, range, height, and movement on the map or in text.







IsCatalogInMostPopularTable: catalog: 45538, numindb: 6
Update: records affected: 1



GetName: 45538 STARLINK-1362

Hit Count: updated at: Tue, 26 May 2020 04:14:23 GMT